Retour au catalogue

STARLINK-37412

ActifCommunicationsVLEO
NORAD 69248·PAYLOAD·🇺🇸 United States

Lancé May 29, 2026 depuis Cape Canaveral Space Force Station

Loading…

Prochains Passages (prochaines 24 heures)

TLE

FraisSource: CelesTrak SupGP

Époque: Sep 14, 2026, 22:53 UTC

1 69248C 26117L   26257.95395833 -.00074157  00000+0 -21893-2 0  2570
2 69248  53.1570 179.5307 0001272  96.0445  40.9390 15.34452617    18

Suivez STARLINK-37412 en temps réel avec AllMySat

Download on the App Store